Погода в Новоданиловке

Украина / Запорожская область     47°31′35″N   35°49′00″E
темп.,
°C
ветер,
м/с
пор.,
м/с
влажн.,
%
обл.,
%
осадки,
мм/ч
давл.,
гПа
погр.,
м
9 декабря, чт
чт923:00+8юв51183100 0.0 1007272
02:00+7ю369688 0.0 1008135
05:00+8ююз4896100 0.0 1010341
08:00+7ю4883100 0.1 1012344
11:00+8ююз5778100 0.0 1014802
14:00+8юз4784100 0.1 1015542
17:00+7ююз3686100 0.0 1017344
20:00+7ююз4788100 0.1 1018365
10 декабря, пт
пт1023:00+7ююз4791100 0.0 1019347
02:00+7ююз3792100 0.0 1021282
05:00+7ю3591100 0.0 1021164
08:00+7ююв369214 0.0 1022164
11:00+10ююв57705 0.0 1022521
14:00+11ююв57675 0.0 1022836
17:00+8юв510855 0.0 1022298
20:00+7вюв61385100 0.0 1022351
11 декабря, сб
сб1123:00+6вюв61487100 0.0 1022359
02:00+6вюв71590100 0.0 1021394
05:00+6вюв81686100 0.0 1020447
08:00+6вюв81780100 0.0 1021489
11:00+8вюв91568100 0.0 1021546
14:00+8юв6106666 0.0 1022535
17:00+5вюв51077100 0.0 1023337
20:00+4вюв5118097 0.0 1024308
12 декабря, вс
вс1223:00+4вюв5118315 0.0 1024282
02:00+3в61282100 0.0 1024279
05:00+2в61381100 0.0 1024312
08:00+3в61479100 0.0 1024362
11:00+6вюв71565100 0.0 1023457
14:00+6вюв81561100 0.0 1021494
17:00+5вюв81659100 0.0 1021523
20:00+5вюв81756100 0.0 1021513
13 декабря, пн
пн1323:00+4вюв81658100 0.0 1020465
02:00+4вюв81661100 0.0 1019437
05:00+3вюв71466100 0.0 1018419
08:00+3вюв61371100 0.0 1019427
11:00+5вюв61065100 0.0 1019495
14:00+6вюв5865100 0.0 1019516
17:00+4в5975100 0.0 1019359
20:00+3в4978100 0.0 1019339